^^
Station Historical Data
Daily Summary for February 9, 2018 Units:  Metric    English   Both
« Previous Day
Next Day »
Daily Weekly Monthly Yearly Custom
  High: Low: Average:
Temperature: -17.8 °C -22.8 °C -21.6 °C
Dew Point: -17.8 °C -23.4 °C -22.2 °C
Humidity: Humidity% 90% 92%
Wind Speed: 0km/h 0km/h 1km/h
Wind Gust: 0km/h - -
Wind- - ESE
Pressure: 0 hPa 34567.7 hPa -
Precipitation: 0 mm    
Historical Graphs
 
 
Tabular Data for February 9, 2018
Time Temperature Dew Point Pressure Wind Wind Speed Wind Gust Humidity Rainfall Rate (Hourly) solar Conditions
-17.8 °C -17.8 °C 0 hPa Calm     Humidity% 0 mm SoftwareType W/m2 Conditions
00:04 -22.2 °C -22.9 °C 34567.7 hPa Calm     91% 0 mm WeatherDisplay:10.37 W/m2 RA
00:09 -22.3 °C -22.9 °C 34567.7 hPa Calm     91% 0 mm WeatherDisplay:10.37 W/m2 RA
00:14 -22.4 °C -23.2 °C 34567.7 hPa Calm     90% 0 mm WeatherDisplay:10.37 W/m2 FEW
00:19 -22.4 °C -23.2 °C 34567.7 hPa Calm     91% 0 mm WeatherDisplay:10.37 W/m2 FEW
00:24 -22.6 °C -23.2 °C 34567.7 hPa Calm     91% 0 mm WeatherDisplay:10.37 W/m2 FEW
00:29 -22.6 °C -23.3 °C 34567.7 hPa Calm     91% 0 mm WeatherDisplay:10.37 W/m2 FEW
00:34 -22.7 °C -23.3 °C 34567.7 hPa Calm     91% 0 mm WeatherDisplay:10.37 W/m2 FEW
00:39 -22.7 °C -23.4 °C 34567.7 hPa Calm     91% 0 mm WeatherDisplay:10.37 W/m2 FEW
00:44 -22.7 °C -23.4 °C 34567.7 hPa Calm     91% 0 mm WeatherDisplay:10.37 W/m2 FEW
00:49 -22.8 °C -23.4 °C 34567.7 hPa Calm     91% 0 mm WeatherDisplay:10.37 W/m2 FEW
00:54 -22.8 °C -23.4 °C 34567.7 hPa Calm     91% 0 mm WeatherDisplay:10.37 W/m2 FEW
00:59 -22.8 °C -23.4 °C 34577.8 hPa Calm     91% 0 mm WeatherDisplay:10.37 W/m2 FEW
01:04 -22.7 °C -23.3 °C 34577.8 hPa Calm     92% 0 mm WeatherDisplay:10.37 W/m2 FEW
01:09 -22.7 °C -23.3 °C 34567.7 hPa Calm     92% 0 mm WeatherDisplay:10.37 W/m2 FEW
01:14 -22.7 °C -23.3 °C 34577.8 hPa Calm     92% 0 mm WeatherDisplay:10.37 W/m2 FEW
01:19 -22.7 °C -23.2 °C 34577.8 hPa Calm     92% 0 mm WeatherDisplay:10.37 W/m2 FEW
01:24 -22.6 °C -23.2 °C 34577.8 hPa Calm     92% 0 mm WeatherDisplay:10.37 W/m2 FEW
01:29 -22.6 °C -23.2 °C 34577.8 hPa Calm     92% 0 mm WeatherDisplay:10.37 W/m2 FEW
01:34 -22.6 °C -23.1 °C 34577.8 hPa Calm     93% 0 mm WeatherDisplay:10.37 W/m2 FEW
01:39 -22.4 °C -23 °C 34577.8 hPa Calm     93% 0 mm WeatherDisplay:10.37 W/m2 FEW
01:44 -22.4 °C -22.9 °C 34577.8 hPa Calm     93% 0 mm WeatherDisplay:10.37 W/m2 FEW
01:49 -22.4 °C -23 °C 34577.8 hPa Calm     92% 0 mm WeatherDisplay:10.37 W/m2 FEW
01:54 -22.4 °C -23 °C 34577.8 hPa Calm     92% 0 mm WeatherDisplay:10.37 W/m2 FEW
01:59 -22.4 °C -23 °C 34577.8 hPa Calm     92% 0 mm WeatherDisplay:10.37 W/m2 FEW
02:04 -22.4 °C -22.9 °C 34577.8 hPa Calm     92% 0 mm WeatherDisplay:10.37 W/m2 FEW
02:09 -22.4 °C -22.9 °C 34577.8 hPa Calm     92% 0 mm WeatherDisplay:10.37 W/m2 FEW
02:14 -22.4 °C -22.9 °C 34577.8 hPa Calm     93% 0 mm WeatherDisplay:10.37 W/m2 FEW
02:19 -22.3 °C -22.8 °C 34577.8 hPa Calm     93% 0 mm WeatherDisplay:10.37 W/m2 FEW
02:24 -22.3 °C -22.8 °C 34577.8 hPa Calm     93% 0 mm WeatherDisplay:10.37 W/m2 FEW
02:29 -22.3 °C -22.8 °C 34577.8 hPa Calm     93% 0 mm WeatherDisplay:10.37 W/m2 FEW
02:34 -22.2 °C -22.7 °C 34577.8 hPa Calm     93% 0 mm WeatherDisplay:10.37 W/m2 FEW
02:39 -22.2 °C -22.7 °C 34577.8 hPa Calm     93% 0 mm WeatherDisplay:10.37 W/m2 FEW
02:44 -22.1 °C -22.6 °C 34577.8 hPa Calm     93% 0 mm WeatherDisplay:10.37 W/m2 FEW
02:49 -22.1 °C -22.6 °C 34577.8 hPa Calm     93% 0 mm WeatherDisplay:10.37 W/m2 FEW
02:54 -22 °C -22.6 °C 34577.8 hPa Calm     93% 0 mm WeatherDisplay:10.37 W/m2 FEW
02:59 -21.9 °C -22.4 °C 34577.8 hPa Calm     93% 0 mm WeatherDisplay:10.37 W/m2 FEW
03:04 -21.9 °C -22.4 °C 34577.8 hPa Calm     93% 0 mm WeatherDisplay:10.37 W/m2 FEW
03:09 -21.8 °C -22.4 °C 34577.8 hPa Calm     93% 0 mm WeatherDisplay:10.37 W/m2 FEW
03:14 -21.8 °C -22.3 °C 34577.8 hPa Calm     93% 0 mm WeatherDisplay:10.37 W/m2 FEW
03:19 -21.8 °C -22.3 °C 34577.8 hPa Calm     93% 0 mm WeatherDisplay:10.37 W/m2 FEW
03:24 -21.7 °C -22.3 °C 34577.8 hPa Calm     93% 0 mm WeatherDisplay:10.37 W/m2 FEW
03:29 -21.7 °C -22.2 °C 34577.8 hPa Calm     93% 0 mm WeatherDisplay:10.37 W/m2 FEW
03:34 -21.7 °C -22.2 °C 34577.8 hPa Calm     93% 0 mm WeatherDisplay:10.37 W/m2 FEW
03:39 -21.7 °C -22.2 °C 34577.8 hPa Calm     93% 0 mm WeatherDisplay:10.37 W/m2 FEW
03:44 -21.6 °C -22.2 °C 34577.8 hPa Calm     93% 0 mm WeatherDisplay:10.37 W/m2 FEW
03:49 -21.6 °C -22.1 °C 34577.8 hPa Calm     93% 0 mm WeatherDisplay:10.37 W/m2 FEW
03:54 -21.6 °C -22.1 °C 34577.8 hPa Calm     93% 0 mm WeatherDisplay:10.37 W/m2 FEW
03:59 -21.6 °C -22.1 °C 34577.8 hPa Calm     93% 0 mm WeatherDisplay:10.37 W/m2 FEW
04:04 -21.6 °C -22.1 °C 34577.8 hPa Calm     93% 0 mm WeatherDisplay:10.37 W/m2 FEW
04:09 -21.5 °C -22.1 °C 34577.8 hPa Calm     93% 0 mm WeatherDisplay:10.37 W/m2 FEW
04:14 -21.6 °C -22.1 °C 34577.8 hPa South 0.5 km/h 2.6 km/h 92% 0 mm WeatherDisplay:10.37 W/m2 FEW
04:19 -21.6 °C -22.1 °C 34577.8 hPa Calm     93% 0 mm WeatherDisplay:10.37 W/m2 FEW
04:24 -21.6 °C -22.1 °C 34577.8 hPa Calm     92% 0 mm WeatherDisplay:10.37 W/m2 FEW
04:29 -21.6 °C -22.2 °C 34577.8 hPa Calm     92% 0 mm WeatherDisplay:10.37 W/m2 FEW
04:34 -21.6 °C -22.2 °C 34577.8 hPa Calm   3.1 km/h 92% 0 mm WeatherDisplay:10.37 W/m2 FEW
04:39 -21.6 °C -22.2 °C 34577.8 hPa SSE 0.3 km/h 3.1 km/h 92% 0 mm WeatherDisplay:10.37 W/m2 FEW
04:44 -21.6 °C -22.2 °C 34577.8 hPa Calm     92% 0 mm WeatherDisplay:10.37 W/m2 FEW
04:49 -21.6 °C -22.2 °C 34577.8 hPa Calm     92% 0 mm WeatherDisplay:10.37 W/m2 FEW
04:54 -21.6 °C -22.2 °C 34577.8 hPa Calm     92% 0 mm WeatherDisplay:10.37 W/m2 FEW
04:59 -21.6 °C -22.2 °C 34577.8 hPa Calm     92% 0 mm WeatherDisplay:10.37 W/m2 FEW
05:04 -21.6 °C -22.2 °C 34577.8 hPa Calm     92% 0 mm WeatherDisplay:10.37 W/m2 FEW
05:09 -21.6 °C -22.2 °C 34591.4 hPa Calm     92% 0 mm WeatherDisplay:10.37 W/m2 FEW
05:14 -21.6 °C -22.2 °C 34591.4 hPa Calm     92% 0 mm WeatherDisplay:10.37 W/m2 FEW
05:19 -21.6 °C -22.2 °C 34591.4 hPa ESE 4.7 km/h 9 km/h 92% 0 mm WeatherDisplay:10.37 W/m2 FEW
05:24 -21.6 °C -22.2 °C 34577.8 hPa ENE 5 km/h 9 km/h 92% 0 mm WeatherDisplay:10.37 W/m2 FEW
05:29 -21.6 °C -22.2 °C 34577.8 hPa SE 0.8 km/h 9 km/h 92% 0 mm WeatherDisplay:10.37 W/m2 FEW
05:34 -21.6 °C -22.2 °C 34577.8 hPa Calm     92% 0 mm WeatherDisplay:10.37 W/m2 FEW
05:39 -21.7 °C -22.3 °C 34577.8 hPa East 4.7 km/h 11.9 km/h 92% 0 mm WeatherDisplay:10.37 W/m2 FEW
05:44 -21.7 °C -22.3 °C 34577.8 hPa Calm     92% 0 mm WeatherDisplay:10.37 W/m2 FEW
05:49 -21.7 °C -22.3 °C 34577.8 hPa ESE 3.4 km/h 9 km/h 92% 0 mm WeatherDisplay:10.37 W/m2 FEW
05:54 -21.7 °C -22.3 °C 34567.7 hPa SE 5 km/h 9 km/h 92% 0 mm WeatherDisplay:10.37 W/m2 FEW
05:59 -21.8 °C -22.3 °C 34567.7 hPa Calm     92% 0 mm WeatherDisplay:10.37 W/m2 FEW
06:04 -21.8 °C -22.4 °C 34567.7 hPa ESE 5.5 km/h 9 km/h 92% 0 mm WeatherDisplay:10.37 W/m2 FEW
06:09 -21.8 °C -22.4 °C 34577.8 hPa East 3.4 km/h 6 km/h 92% 0 mm WeatherDisplay:10.37 W/m2 FEW
06:14 -21.8 °C -22.4 °C 34577.8 hPa ESE 0.5 km/h 9 km/h 92% 0 mm WeatherDisplay:10.37 W/m2 FEW
06:19 -21.8 °C -22.4 °C 34577.8 hPa SE 3.1 km/h 9 km/h 92% 0 mm WeatherDisplay:10.37 W/m2 FEW
06:24 -21.8 °C -22.4 °C 34577.8 hPa SE 3.9 km/h 9 km/h 92% 0 mm WeatherDisplay:10.37 W/m2 FEW
06:29 -21.8 °C -22.4 °C 34577.8 hPa Calm     92% 0 mm WeatherDisplay:10.37 W/m2 FEW
06:34 -21.8 °C -22.4 °C 34577.8 hPa Calm     92% 0 mm WeatherDisplay:10.37 W/m2 FEW
06:39 -21.8 °C -22.4 °C 34577.8 hPa ESE 1 km/h 6 km/h 92% 0 mm WeatherDisplay:10.37 W/m2 FEW
06:44 -21.8 °C -22.4 °C 34577.8 hPa ESE 4.7 km/h 9 km/h 92% 0 mm WeatherDisplay:10.37 W/m2 FEW
06:49 -21.8 °C -22.4 °C 34577.8 hPa ENE 1.6 km/h 6 km/h 92% 0 mm WeatherDisplay:10.37 W/m2 FEW
06:54 -21.8 °C -22.4 °C 34577.8 hPa ESE 1.8 km/h 2.6 km/h 93% 0 mm WeatherDisplay:10.37 W/m2 FEW
06:59 -21.8 °C -22.4 °C 34591.4 hPa Calm     93% 0 mm WeatherDisplay:10.37 W/m2 FEW
07:04 -21.8 °C -22.4 °C 34591.4 hPa Calm     93% 0 mm WeatherDisplay:10.37 W/m2 FEW
07:09 -21.8 °C -22.3 °C 34591.4 hPa Calm     93% 0 mm WeatherDisplay:10.37 W/m2 FEW
07:14 -21.8 °C -22.4 °C 34591.4 hPa Calm     93% 0 mm WeatherDisplay:10.37 W/m2 FEW
07:19 -21.8 °C -22.3 °C 34591.4 hPa Calm   3.1 km/h 93% 0 mm WeatherDisplay:10.37 W/m2 FEW
07:24 -21.8 °C -22.3 °C 34591.4 hPa ESE 0.3 km/h 3.1 km/h 93% 0 mm WeatherDisplay:10.37 W/m2 FEW
07:29 -21.8 °C -22.3 °C 34591.4 hPa ESE 0.3 km/h 9 km/h 93% 0 mm WeatherDisplay:10.37 W/m2 FEW
07:34 -21.8 °C -22.3 °C 34591.4 hPa ESE 1.6 km/h 9 km/h 93% 0 mm WeatherDisplay:10.37 W/m2 FEW
07:39 -21.8 °C -22.3 °C 34591.4 hPa ESE 1 km/h 6 km/h 93% 0 mm WeatherDisplay:10.37 W/m2 FEW
07:44 -21.8 °C -22.3 °C 34591.4 hPa ESE 2.3 km/h 11.9 km/h 93% 0 mm WeatherDisplay:10.37 W/m2 FEW
07:49 -21.8 °C -22.3 °C 34591.4 hPa ESE 2.6 km/h 9 km/h 93% 0 mm WeatherDisplay:10.37 W/m2 FEW
07:54 -21.8 °C -22.3 °C 34591.4 hPa Calm   6 km/h 93% 0 mm WeatherDisplay:10.37 W/m2 FEW
07:59 -21.8 °C -22.3 °C 34591.4 hPa Calm     93% 0 mm WeatherDisplay:10.37 W/m2 FEW
08:04 -21.8 °C -22.3 °C 34591.4 hPa ESE 2.1 km/h 6 km/h 93% 0 mm WeatherDisplay:10.37 W/m2 FEW
08:09 -21.8 °C -22.3 °C 34591.4 hPa ESE 1.3 km/h 9 km/h 93% 0 mm WeatherDisplay:10.37 W/m2 FEW
08:14 -21.8 °C -22.3 °C 34591.4 hPa Calm     93% 0 mm WeatherDisplay:10.37 W/m2 FEW
08:19 -21.8 °C -22.3 °C 34591.4 hPa Calm     93% 0 mm WeatherDisplay:10.37 W/m2 FEW
08:24 -21.8 °C -22.3 °C 34591.4 hPa Calm     93% 0 mm WeatherDisplay:10.37 W/m2 FEW
08:29 -21.8 °C -22.3 °C 34591.4 hPa SE 2.1 km/h 9 km/h 93% 0 mm WeatherDisplay:10.37 W/m2 FEW
08:34 -21.8 °C -22.3 °C 34601.5 hPa Calm     93% 0 mm WeatherDisplay:10.37 W/m2 FEW
08:39 -21.8 °C -22.3 °C 34601.5 hPa SE 1.8 km/h   93% 0 mm WeatherDisplay:10.37 W/m2 FEW
08:44 -21.8 °C -22.3 °C 34601.5 hPa SSE 3.4 km/h 9 km/h 93% 0 mm WeatherDisplay:10.37 W/m2 FEW
08:49 -21.7 °C -22.3 °C 34601.5 hPa Calm     93% 0 mm WeatherDisplay:10.37 W/m2 FEW
08:54 -21.7 °C -22.2 °C 34601.5 hPa Calm     93% 0 mm WeatherDisplay:10.37 W/m2 FEW
08:59 -21.7 °C -22.2 °C 34601.5 hPa Calm     93% 0 mm WeatherDisplay:10.37 W/m2 FEW
09:04 -21.7 °C -22.2 °C 34601.5 hPa SE 3.7 km/h 9 km/h 93% 0 mm WeatherDisplay:10.37 W/m2 FEW
09:09 -21.7 °C -22.2 °C 34601.5 hPa SE 2.6 km/h 6 km/h 93% 0 mm WeatherDisplay:10.37 W/m2 FEW
09:14 -21.7 °C -22.3 °C 34601.5 hPa Calm   6 km/h 92% 0 mm WeatherDisplay:10.37 W/m2 FEW
09:19 -21.7 °C -22.3 °C 34601.5 hPa SE 3.4 km/h 9 km/h 92% 0 mm WeatherDisplay:10.37 W/m2 FEW
09:24 -21.7 °C -22.2 °C 34601.5 hPa Calm     93% 0 mm WeatherDisplay:10.37 W/m2 FEW
09:29 -21.7 °C -22.3 °C 34601.5 hPa Calm     92% 0 mm WeatherDisplay:10.37 W/m2 FEW
09:34 -21.7 °C -22.2 °C 34601.5 hPa SE 0.5 km/h 7.7 km/h 93% 0 mm WeatherDisplay:10.37 W/m2 FEW
09:39 -21.7 °C -22.3 °C 34601.5 hPa Calm     93% 0 mm WeatherDisplay:10.37 W/m2 FEW
09:44 -21.7 °C -22.3 °C 34611.7 hPa SE 1.6 km/h 5.1 km/h 92% 0 mm WeatherDisplay:10.37 W/m2 FEW
09:49 -21.7 °C -22.2 °C 34611.7 hPa Calm     93% 0 mm WeatherDisplay:10.37 W/m2 FEW
09:54 -21.7 °C -22.2 °C 34611.7 hPa SE 0.5 km/h 6 km/h 93% 0 mm WeatherDisplay:10.37 W/m2 FEW
09:59 -21.7 °C -22.3 °C 34611.7 hPa Calm     92% 0 mm WeatherDisplay:10.37 W/m2 FEW
10:04 -21.7 °C -22.2 °C 34611.7 hPa Calm     93% 0 mm WeatherDisplay:10.37 W/m2 FEW
10:09 -21.6 °C -22.2 °C 34611.7 hPa Calm     93% 0 mm WeatherDisplay:10.37 W/m2 FEW
10:14 -21.6 °C -22.1 °C 34611.7 hPa Calm     93% 0 mm WeatherDisplay:10.37 W/m2 FEW
10:19 -21.6 °C -22.2 °C 34611.7 hPa ESE 3.7 km/h 9 km/h 92% 0 mm WeatherDisplay:10.37 W/m2 FEW
10:24 -21.6 °C -22.1 °C 34611.7 hPa ESE 0.5 km/h 9 km/h 92% 0 mm WeatherDisplay:10.37 W/m2 FEW
10:29 -21.5 °C -22.1 °C 34611.7 hPa ESE 2.1 km/h 6 km/h 92% 0 mm WeatherDisplay:10.37 W/m2 FEW
10:34 -21.5 °C -22.1 °C 34611.7 hPa Calm     92% 0 mm WeatherDisplay:10.37 W/m2 FEW
10:39 -21.5 °C -22.1 °C 34611.7 hPa Calm     92% 0 mm WeatherDisplay:10.37 W/m2 FEW
10:45 -21.4 °C -22.1 °C 34611.7 hPa Calm     92% 0 mm WeatherDisplay:10.37 W/m2 FEW
10:50 -21.4 °C -22 °C 34625.2 hPa ESE 2.1 km/h 9 km/h 92% 0 mm WeatherDisplay:10.37 W/m2 FEW
10:55 -21.4 °C -22 °C 34625.2 hPa SE 2.1 km/h 6 km/h 92% 0 mm WeatherDisplay:10.37 W/m2 FEW
11:00 -21.3 °C -22 °C 34625.2 hPa SE 0.8 km/h 7.7 km/h 92% 0 mm WeatherDisplay:10.37 W/m2 FEW
11:05 -21.3 °C -22 °C 34625.2 hPa SE 1 km/h 6 km/h 92% 0 mm WeatherDisplay:10.37 W/m2 FEW
11:11 -21.3 °C -22 °C 34625.2 hPa Calm     92% 0 mm WeatherDisplay:10.37 W/m2 FEW
11:16 -21.3 °C -22 °C 34611.7 hPa ESE 3.1 km/h 6 km/h 92% 0 mm WeatherDisplay:10.37 W/m2 FEW
11:21 -21.3 °C -22.1 °C 34625.2 hPa Calm     91% 0 mm WeatherDisplay:10.37 W/m2 FEW
11:26 -21.3 °C -22.1 °C 34611.7 hPa SE 1.3 km/h 10.3 km/h 91% 0 mm WeatherDisplay:10.37 W/m2 FEW
11:31 -21.3 °C -22.1 °C 34611.7 hPa SE 5.1 km/h 9 km/h 91% 0 mm WeatherDisplay:10.37 W/m2 FEW
11:36 -21.3 °C -22.1 °C 34625.2 hPa SE 0.8 km/h 11.9 km/h 91% 0 mm WeatherDisplay:10.37 W/m2 FEW
11:41 -21.3 °C -22.1 °C 34625.2 hPa Calm   5.1 km/h 91% 0 mm WeatherDisplay:10.37 W/m2 FEW
11:46 -21.3 °C -22 °C 34625.2 hPa ESE 5.5 km/h 11.9 km/h 91% 0 mm WeatherDisplay:10.37 W/m2 FEW
11:51 -21.3 °C -22 °C 34625.2 hPa Calm     91% 0 mm WeatherDisplay:10.37 W/m2 FEW
11:56 -21.3 °C -22 °C 34625.2 hPa ESE 1.3 km/h 6 km/h 91% 0 mm WeatherDisplay:10.37 W/m2 FEW
12:01 -21.3 °C -22 °C 34625.2 hPa Calm   2.6 km/h 91% 0 mm WeatherDisplay:10.37 W/m2 FEW
12:06 -21.2 °C -21.9 °C 34625.2 hPa ESE 6.3 km/h 9 km/h 91% 0 mm WeatherDisplay:10.37 W/m2 FEW
12:11 -21.2 °C -21.9 °C 34625.2 hPa Calm     91% 0 mm WeatherDisplay:10.37 W/m2 FEW
12:16 -21.3 °C -21.9 °C 34625.2 hPa ESE 3.9 km/h 15 km/h 91% 0 mm WeatherDisplay:10.37 W/m2 FEW
12:21 -21.3 °C -22.1 °C 34625.2 hPa Calm     90% 0 mm WeatherDisplay:10.37 W/m2 FEW
12:26 -21.3 °C -21.9 °C 34625.2 hPa Calm     91% 0 mm WeatherDisplay:10.37 W/m2 FEW
12:31 -21.2 °C -21.9 °C 34625.2 hPa Calm     91% 0 mm WeatherDisplay:10.37 W/m2 FEW
12:36 -21.2 °C -21.9 °C 34625.2 hPa ESE 1.3 km/h 9 km/h 91% 0 mm WeatherDisplay:10.37 W/m2 FEW
12:41 -21.2 °C -21.9 °C 34625.2 hPa SE 3.7 km/h 11.9 km/h 91% 0 mm WeatherDisplay:10.37 W/m2 FEW
12:46 -21.2 °C -21.9 °C 34625.2 hPa Calm     91% 0 mm WeatherDisplay:10.37 W/m2 FEW
12:51 -21.2 °C -21.8 °C 34625.2 hPa Calm   3.1 km/h 91% 0 mm WeatherDisplay:10.37 W/m2 FEW
12:56 -21.2 °C -21.9 °C 34625.2 hPa SE 1.6 km/h 5.1 km/h 90% 0 mm WeatherDisplay:10.37 W/m2 FEW
13:01 -21.2 °C -21.9 °C 34635.4 hPa Calm     90% 0 mm WeatherDisplay:10.37 W/m2 FEW
13:06 -21.1 °C -21.9 °C 34625.2 hPa Calm     90% 0 mm WeatherDisplay:10.37 W/m2 FEW
13:11 -21.1 °C -21.9 °C 34625.2 hPa SE 2.1 km/h 6 km/h 90% 0 mm WeatherDisplay:10.37 W/m2 FEW
13:16 -21.2 °C -21.9 °C 34625.2 hPa SE 3.9 km/h 9 km/h 90% 0 mm WeatherDisplay:10.37 W/m2 FEW
13:21 -21.2 °C -21.9 °C 34625.2 hPa SE 5 km/h 6 km/h 90% 0 mm WeatherDisplay:10.37 W/m2 FEW
13:26 -21.2 °C -21.9 °C 34625.2 hPa SE 1.8 km/h 5.1 km/h 90% 0 mm WeatherDisplay:10.37 W/m2 FEW
13:31 -21.2 °C -21.9 °C 34625.2 hPa SE 5.1 km/h 9 km/h 90% 0 mm WeatherDisplay:10.37 W/m2 FEW
13:36 -21.2 °C -21.9 °C 34625.2 hPa SE 1 km/h 6 km/h 90% 0 mm WeatherDisplay:10.37 W/m2 FEW
13:41 -21.2 °C -21.9 °C 34635.4 hPa SE 1.8 km/h 5.1 km/h 90% 0 mm WeatherDisplay:10.37 W/m2 FEW
13:46 -21.2 °C -21.9 °C 34635.4 hPa Calm   6 km/h 90% 0 mm WeatherDisplay:10.37 W/m2 FEW
13:51 -21.2 °C -21.9 °C 34625.2 hPa SE 2.6 km/h 6 km/h 90% 0 mm WeatherDisplay:10.37 W/m2 FEW
13:56 -21.2 °C -21.9 °C 34625.2 hPa Calm     90% 0 mm WeatherDisplay:10.37 W/m2 FEW
14:01 -21.2 °C -21.9 °C 34625.2 hPa SE 0.5 km/h 9 km/h 90% 0 mm WeatherDisplay:10.37 W/m2 FEW
14:06 -21.1 °C -21.9 °C 34625.2 hPa Calm     90% 0 mm WeatherDisplay:10.37 W/m2 FEW
14:11 -21.1 °C -21.9 °C 34625.2 hPa SE 0.8 km/h 6 km/h 90% 0 mm WeatherDisplay:10.37 W/m2 FEW
14:16 -21.1 °C -21.9 °C 34625.2 hPa SE 1.6 km/h 9 km/h 90% 0 mm WeatherDisplay:10.37 W/m2 FEW
14:21 -21.1 °C -21.9 °C 34625.2 hPa Calm   3.1 km/h 90% 0 mm WeatherDisplay:10.37 W/m2 FEW
14:26 -21.1 °C -21.9 °C 34625.2 hPa SE 3.4 km/h 9 km/h 90% 0 mm WeatherDisplay:10.37 W/m2 FEW
14:31 -21.1 °C -21.9 °C 34625.2 hPa SE 2.3 km/h 17.9 km/h 90% 0 mm WeatherDisplay:10.37 W/m2 FEW
14:36 -21.2 °C -21.9 °C 34625.2 hPa ESE 6 km/h 9 km/h 90% 0 mm WeatherDisplay:10.37 W/m2 FEW
14:41 -21.2 °C -22 °C 34625.2 hPa Calm   6 km/h 90% 0 mm WeatherDisplay:10.37 W/m2 FEW
14:46 -21.2 °C -22 °C 34625.2 hPa SE 2.1 km/h 9 km/h 90% 0 mm WeatherDisplay:10.37 W/m2 FEW
14:51 -21.2 °C -22 °C 34625.2 hPa SE 1.3 km/h 9 km/h 90% 0 mm WeatherDisplay:10.37 W/m2 FEW
14:56 -21.2 °C -21.8 °C 34625.2 hPa SE 0.5 km/h 9 km/h 91% 0 mm WeatherDisplay:10.37 W/m2 FEW
15:01 -21.2 °C -21.8 °C 34625.2 hPa SE 2.9 km/h 6 km/h 91% 0 mm WeatherDisplay:10.37 W/m2 FEW
15:06 -21.2 °C -21.9 °C 34625.2 hPa Calm     90% 0 mm WeatherDisplay:10.37 W/m2 FEW
15:11 -21.2 °C -21.9 °C 34625.2 hPa Calm   6 km/h 90% 0 mm WeatherDisplay:10.37 W/m2 FEW
15:16 -21.2 °C -22 °C 34625.2 hPa SE 2.1 km/h 7.7 km/h 90% 0 mm WeatherDisplay:10.37 W/m2 FEW
15:21 -21.3 °C -22.1 °C 34625.2 hPa SE 5.5 km/h 9 km/h 90% 0 mm WeatherDisplay:10.37 W/m2 FEW
15:26 -21.3 °C -22.1 °C 34625.2 hPa Calm     90% 0 mm WeatherDisplay:10.37 W/m2 FEW
15:31 -21.3 °C -22.1 °C 34625.2 hPa SE 2.6 km/h 9 km/h 90% 0 mm WeatherDisplay:10.37 W/m2 FEW
15:36 -21.4 °C -22.2 °C 34625.2 hPa SE 3.9 km/h 10.3 km/h 90% 0 mm WeatherDisplay:10.37 W/m2 FEW
15:41 -21.4 °C -22.1 °C 34625.2 hPa SE 5.1 km/h 9 km/h 91% 0 mm WeatherDisplay:10.37 W/m2 FEW
15:46 -21.4 °C -22.1 °C 34625.2 hPa Calm     91% 0 mm WeatherDisplay:10.37 W/m2 FEW
15:51 -21.4 °C -22.1 °C 34625.2 hPa Calm     91% 0 mm WeatherDisplay:10.37 W/m2 FEW
15:56 -21.4 °C -22.1 °C 34625.2 hPa Calm     91% 0 mm WeatherDisplay:10.37 W/m2 FEW
15:59 -21.5 °C -22.2 °C 34625.2 hPa Calm     91% 0 mm WeatherDisplay:10.37 W/m2 FEW
16:04 -21.5 °C -22.2 °C 34625.2 hPa SE 1.3 km/h 7.7 km/h 91% 0 mm WeatherDisplay:10.37 W/m2 FEW
16:09 -21.5 °C -22.2 °C 34625.2 hPa SE 2.6 km/h 9 km/h 91% 0 mm WeatherDisplay:10.37 W/m2 FEW
16:14 -21.6 °C -22.2 °C 34625.2 hPa Calm     91% 0 mm WeatherDisplay:10.37 W/m2 FEW
16:19 -21.6 °C -22.2 °C 34635.4 hPa ESE 1 km/h   91% 0 mm WeatherDisplay:10.37 W/m2 FEW
16:24 -21.6 °C -22.3 °C 34635.4 hPa ESE 2.3 km/h 9 km/h 91% 0 mm WeatherDisplay:10.37 W/m2 FEW
16:29 -21.6 °C -22.3 °C 34635.4 hPa SE 0.5 km/h 9 km/h 91% 0 mm WeatherDisplay:10.37 W/m2 FEW
16:34 -21.6 °C -22.3 °C 34635.4 hPa ESE 6.8 km/h 15.6 km/h 91% 0 mm WeatherDisplay:10.37 W/m2 FEW
16:39 -21.6 °C -22.3 °C 34635.4 hPa ESE 1.6 km/h 6 km/h 91% 0 mm WeatherDisplay:10.37 W/m2 FEW
16:44 -21.6 °C -22.3 °C 34635.4 hPa ESE 1.6 km/h 6 km/h 91% 0 mm WeatherDisplay:10.37 W/m2 FEW
16:49 -21.6 °C -22.3 °C 34635.4 hPa Calm     91% 0 mm WeatherDisplay:10.37 W/m2 FEW
16:54 -21.6 °C -22.2 °C 34635.4 hPa ESE 1.3 km/h 7.7 km/h 92% 0 mm WeatherDisplay:10.37 W/m2 FEW
16:59 -21.6 °C -22.2 °C 34635.4 hPa ESE 9.3 km/h 20.9 km/h 92% 0 mm WeatherDisplay:10.37 W/m2 FEW
17:04 -21.7 °C -22.3 °C 34645.6 hPa SE 5.5 km/h 7.7 km/h 92% 0 mm WeatherDisplay:10.37 W/m2 FEW
17:09 -21.7 °C -22.3 °C 34645.6 hPa Calm     92% 0 mm WeatherDisplay:10.37 W/m2 FEW
17:14 -21.7 °C -22.3 °C 34645.6 hPa Calm     92% 0 mm WeatherDisplay:10.37 W/m2 FEW
17:19 -21.7 °C -22.3 °C 34645.6 hPa Calm     92% 0 mm WeatherDisplay:10.37 W/m2 FEW
17:24 -21.7 °C -22.3 °C 34645.6 hPa Calm     92% 0 mm WeatherDisplay:10.37 W/m2 FEW
17:29 -21.7 °C -22.3 °C 34645.6 hPa Calm     92% 0 mm WeatherDisplay:10.37 W/m2 FEW
17:34 -21.7 °C -22.3 °C 34645.6 hPa Calm     92% 0 mm WeatherDisplay:10.37 W/m2 FEW
17:39 -21.7 °C -22.3 °C 34645.6 hPa SE 6 km/h 11.9 km/h 92% 0 mm WeatherDisplay:10.37 W/m2 FEW
17:44 -21.6 °C -22.2 °C 34635.4 hPa ESE 5 km/h 9 km/h 92% 0 mm WeatherDisplay:10.37 W/m2 FEW
17:49 -21.6 °C -22.2 °C 34635.4 hPa ESE 6.9 km/h 9 km/h 92% 0 mm WeatherDisplay:10.37 W/m2 FEW
17:54 -21.7 °C -22.3 °C 34645.6 hPa ESE 6 km/h 10.3 km/h 92% 0 mm WeatherDisplay:10.37 W/m2 FEW
17:59 -21.7 °C -22.3 °C 34645.6 hPa Calm     92% 0 mm WeatherDisplay:10.37 W/m2 FEW
18:04 -21.7 °C -22.3 °C 34645.6 hPa Calm     92% 0 mm WeatherDisplay:10.37 W/m2 FEW
18:09 -21.7 °C -22.3 °C 34645.6 hPa ESE 1.8 km/h 6 km/h 92% 0 mm WeatherDisplay:10.37 W/m2 FEW
18:14 -21.7 °C -22.3 °C 34645.6 hPa Calm     92% 0 mm WeatherDisplay:10.37 W/m2 FEW
18:19 -21.7 °C -22.3 °C 34645.6 hPa Calm     92% 0 mm WeatherDisplay:10.37 W/m2 FEW
18:24 -21.6 °C -22.2 °C 34645.6 hPa ESE 5.6 km/h 11.9 km/h 92% 0 mm WeatherDisplay:10.37 W/m2 FEW
18:29 -21.6 °C -22.2 °C 34645.6 hPa ESE 2.1 km/h 6 km/h 92% 0 mm WeatherDisplay:10.37 W/m2 FEW
18:34 -21.6 °C -22.2 °C 34635.4 hPa ESE 1.3 km/h 7.7 km/h 92% 0 mm WeatherDisplay:10.37 W/m2 FEW
18:39 -21.6 °C -22.2 °C 34635.4 hPa ESE 1.6 km/h 9 km/h 92% 0 mm WeatherDisplay:10.37 W/m2 FEW
18:44 -21.6 °C -22.2 °C 34635.4 hPa ESE 2.6 km/h 6 km/h 92% 0 mm WeatherDisplay:10.37 W/m2 FEW
18:49 -21.6 °C -22.2 °C 34635.4 hPa ESE 5.5 km/h 17.9 km/h 92% 0 mm WeatherDisplay:10.37 W/m2 FEW
18:54 -21.6 °C -22.2 °C 34645.6 hPa ESE 0.3 km/h 9 km/h 92% 0 mm WeatherDisplay:10.37 W/m2 FEW
18:59 -21.6 °C -22.2 °C 34645.6 hPa ESE 2.6 km/h 9 km/h 92% 0 mm WeatherDisplay:10.37 W/m2 FEW
19:04 -21.6 °C -22.1 °C 34645.6 hPa SE 2.9 km/h 7.7 km/h 92% 0 mm WeatherDisplay:10.37 W/m2 FEW
19:09 -21.6 °C -22.1 °C 34645.6 hPa SE 2.3 km/h 9 km/h 93% 0 mm WeatherDisplay:10.37 W/m2 FEW
19:14 -21.5 °C -22.1 °C 34645.6 hPa SE 2.6 km/h 2.6 km/h 93% 0 mm WeatherDisplay:10.37 W/m2 FEW
19:19 -21.5 °C -22.1 °C 34645.6 hPa Calm     93% 0 mm WeatherDisplay:10.37 W/m2 FEW
19:24 -21.5 °C -22.1 °C 34645.6 hPa Calm     93% 0 mm WeatherDisplay:10.37 W/m2 FEW
19:29 -21.5 °C -22.1 °C 34645.6 hPa Calm     93% 0 mm WeatherDisplay:10.37 W/m2 FEW
19:34 -21.5 °C -22 °C 34645.6 hPa Calm     93% 0 mm WeatherDisplay:10.37 W/m2 FEW
19:39 -21.5 °C -22 °C 34645.6 hPa Calm     93% 0 mm WeatherDisplay:10.37 W/m2 FEW
19:44 -21.5 °C -22 °C 34645.6 hPa Calm     93% 0 mm WeatherDisplay:10.37 W/m2 FEW
19:49 -21.5 °C -22 °C 34645.6 hPa Calm     93% 0 mm WeatherDisplay:10.37 W/m2 FEW
19:54 -21.4 °C -22 °C 34645.6 hPa Calm     93% 0 mm WeatherDisplay:10.37 W/m2 FEW
19:59 -21.4 °C -22 °C 34645.6 hPa Calm     93% 0 mm WeatherDisplay:10.37 W/m2 FEW
20:04 -21.4 °C -21.9 °C 34645.6 hPa Calm     93% 0 mm WeatherDisplay:10.37 W/m2 FEW
20:09 -21.4 °C -21.9 °C 34645.6 hPa Calm     93% 0 mm WeatherDisplay:10.37 W/m2 FEW
20:14 -21.4 °C -21.9 °C 34645.6 hPa Calm     93% 0 mm WeatherDisplay:10.37 W/m2 FEW
20:19 -21.4 °C -21.9 °C 34645.6 hPa Calm     93% 0 mm WeatherDisplay:10.37 W/m2 FEW
20:24 -21.4 °C -21.9 °C 34645.6 hPa Calm     93% 0 mm WeatherDisplay:10.37 W/m2 FEW
20:29 -21.4 °C -21.9 °C 34645.6 hPa Calm     93% 0 mm WeatherDisplay:10.37 W/m2 FEW
20:34 -21.3 °C -21.9 °C 34645.6 hPa Calm     93% 0 mm WeatherDisplay:10.37 W/m2 FEW
20:39 -21.3 °C -21.9 °C 34645.6 hPa Calm     93% 0 mm WeatherDisplay:10.37 W/m2 FEW
20:44 -21.3 °C -21.9 °C 34645.6 hPa Calm     93% 0 mm WeatherDisplay:10.37 W/m2 FEW
20:49 -21.3 °C -21.8 °C 34645.6 hPa SE 2.9 km/h 9 km/h 93% 0 mm WeatherDisplay:10.37 W/m2 FEW
20:54 -21.3 °C -21.8 °C 34645.6 hPa Calm     93% 0 mm WeatherDisplay:10.37 W/m2 FEW
20:59 -21.3 °C -21.8 °C 34645.6 hPa Calm     93% 0 mm WeatherDisplay:10.37 W/m2 FEW
21:04 -21.3 °C -21.8 °C 34645.6 hPa Calm     93% 0 mm WeatherDisplay:10.37 W/m2 FEW
21:09 -21.2 °C -21.8 °C 34645.6 hPa Calm     93% 0 mm WeatherDisplay:10.37 W/m2 FEW
21:14 -21.2 °C -21.8 °C 34645.6 hPa Calm     93% 0 mm WeatherDisplay:10.37 W/m2 FEW
21:19 -21.2 °C -21.8 °C 34645.6 hPa Calm     93% 0 mm WeatherDisplay:10.37 W/m2 FEW
21:24 -21.2 °C -21.8 °C 34645.6 hPa Calm     93% 0 mm WeatherDisplay:10.37 W/m2 FEW
21:29 -21.2 °C -21.8 °C 34659.1 hPa Calm     93% 0 mm WeatherDisplay:10.37 W/m2 FEW
21:34 -21.2 °C -21.7 °C 34645.6 hPa Calm     93% 0 mm WeatherDisplay:10.37 W/m2 FEW
21:39 -21.2 °C -21.7 °C 34645.6 hPa Calm     93% 0 mm WeatherDisplay:10.37 W/m2 FEW
21:44 -21.2 °C -21.7 °C 34659.1 hPa Calm     93% 0 mm WeatherDisplay:10.37 W/m2 FEW
21:49 -21.2 °C -21.7 °C 34659.1 hPa Calm     93% 0 mm WeatherDisplay:10.37 W/m2 FEW
21:54 -21.2 °C -21.7 °C 34659.1 hPa Calm     93% 0 mm WeatherDisplay:10.37 W/m2 FEW
21:59 -21.2 °C -21.7 °C 34659.1 hPa Calm     93% 0 mm WeatherDisplay:10.37 W/m2 FEW
22:04 -21.2 °C -21.7 °C 34659.1 hPa Calm     93% 0 mm WeatherDisplay:10.37 W/m2 FEW
22:09 -21.1 °C -21.6 °C 34659.1 hPa Calm     93% 0 mm WeatherDisplay:10.37 W/m2 FEW
22:14 -21.1 °C -21.6 °C 34659.1 hPa Calm     93% 0 mm WeatherDisplay:10.37 W/m2 FEW
22:19 -21.1 °C -21.6 °C 34659.1 hPa Calm     93% 0 mm WeatherDisplay:10.37 W/m2 FEW
22:24 -21.1 °C -21.6 °C 34659.1 hPa Calm     93% 0 mm WeatherDisplay:10.37 W/m2 FEW
22:29 -21.1 °C -21.6 °C 34659.1 hPa Calm     93% 0 mm WeatherDisplay:10.37 W/m2 FEW
22:34 -21 °C -21.6 °C 34659.1 hPa Calm     93% 0 mm WeatherDisplay:10.37 W/m2 FEW
22:39 -21 °C -21.6 °C 34659.1 hPa Calm     93% 0 mm WeatherDisplay:10.37 W/m2 FEW
22:45 -21 °C -21.6 °C 34659.1 hPa Calm     93% 0 mm WeatherDisplay:10.37 W/m2 FEW
22:50 -21.1 °C -21.6 °C 34659.1 hPa Calm     93% 0 mm WeatherDisplay:10.37 W/m2 FEW
22:55 -21.1 °C -21.6 °C 34659.1 hPa Calm     93% 0 mm WeatherDisplay:10.37 W/m2 FEW
23:00 -21.1 °C -21.6 °C 34669.3 hPa Calm     93% 0 mm WeatherDisplay:10.37 W/m2 FEW
23:05 -21.1 °C -21.6 °C 34669.3 hPa Calm     93% 0 mm WeatherDisplay:10.37 W/m2 FEW
23:10 -21.1 °C -21.6 °C 34669.3 hPa Calm     93% 0 mm WeatherDisplay:10.37 W/m2 FEW
23:16 -21.1 °C -21.6 °C 34669.3 hPa Calm     93% 0 mm WeatherDisplay:10.37 W/m2 FEW
23:21 -21 °C -21.6 °C 34669.3 hPa Calm     93% 0 mm WeatherDisplay:10.37 W/m2 FEW
23:26 -21 °C -21.6 °C 34669.3 hPa Calm     93% 0 mm WeatherDisplay:10.37 W/m2 FEW
23:31 -21 °C -21.6 °C 34669.3 hPa Calm     93% 0 mm WeatherDisplay:10.37 W/m2 FEW
23:36 -21 °C -21.6 °C 34669.3 hPa Calm     93% 0 mm WeatherDisplay:10.37 W/m2 FEW
23:41 -21 °C -21.6 °C 34669.3 hPa Calm     93% 0 mm WeatherDisplay:10.37 W/m2 FEW
23:46 -21 °C -21.6 °C 34669.3 hPa Calm     93% 0 mm WeatherDisplay:10.37 W/m2 FEW
23:51 -21 °C -21.6 °C 34669.3 hPa SE 1.3 km/h 6 km/h 93% 0 mm WeatherDisplay:10.37 W/m2 FEW
23:56 -21 °C -21.6 °C 34669.3 hPa Calm     93% 0 mm WeatherDisplay:10.37 W/m2 FEW
Tuulensuunkaari, Veikkola, Suomi
Compliments of Weather Underground - 2.75 mb